This demonstration page uses our WeatherBlox Daily Observations layout. Learn more.

Left ArrowRight Arrow

Hourly Observations for July 28, 2022

Temp ( °F °C ) Dew Point ( °F °C ) Humidity (%) Winds ( mph kmh ) Pressure ( in mb ) Visibility ( mi km ) Precip ( " mm )
12:53 am 00:53 Clear 59 15 45 7.2 60 60 E 5 7 29.94 1014 10 16 0.00 0.00
1:53 am 01:53 Clear 55 12.8 46 7.8 72 72 Calm 29.95 1014 10 16 0.00 0.00
2:53 am 02:53 Clear 54 12.2 45 7.2 72 72 Calm 29.94 1014 10 16 0.00 0.00
3:53 am 03:53 Clear 56 13.3 45 7.2 67 67 Calm 29.94 1014 10 16 0.00 0.00
4:53 am 04:53 Clear 53 11.7 45 7.2 74 74 W 7 11 29.96 1015 10 16 0.00 0.00
5:53 am 05:53 Clear 52 11.1 44 6.7 75 75 N 5 7 29.98 1015 10 16 0.00 0.00
6:53 am 06:53 Sunny 56 13.3 46 7.8 70 70 E 3 6 29.99 1016 10 16 0.00 0.00
7:53 am 07:53 Sunny 62 16.7 47 8.3 58 58 Calm 30.01 1016 10 16 0.00 0.00
8:53 am 08:53 Sunny 69 20.6 49 9.4 49 49 NE 3 6 30.03 1017 10 16 0.00 0.00
9:53 am 09:53 Sunny 74 23.3 48 8.9 40 40 Calm 30.02 1017 9 14 0.00 0.00
10:53 am 10:53 Sunny 77 25 50 10 39 39 NE 5 7 30.02 1017 10 16 0.00 0.00
11:53 am 11:53 Sunny 81 27.2 50 10 34 34 N 6 9 30.01 1016 10 16 0.00 0.00
12:53 pm 12:53 Sunny 82 27.8 48 8.9 31 31 WNW 6 9 29.98 1015 10 16 0.00 0.00
1:53 pm 13:53 Mostly Sunny 85 29.4 47 8.3 27 27 VRB 3 6 29.96 1015 10 16 0.00 0.00
2:53 pm 14:53 Mostly Cloudy 82 27.8 48 8.9 31 31 SW 16 26 29.96 1015 10 16 0.00 0.00
3:53 pm 15:53 Sunny 82 27.8 50 10 33 33 SW 16 26 29.94 1014 10 16 0.00 0.00
4:53 pm 16:53 Mostly Cloudy 80 26.7 44 6.7 28 28 E 15 24 29.95 1014 10 16 0.00 0.00
5:43 pm 17:43 Cloudy with Nearby Thunderstorms 69 20.6 50 10 51 51 ENE 10 17 29.81 1009 3 4 0.14 3.56
5:47 pm 17:47 Cloudy with Strong Thunderstorms 66 19 52 11 60 60 ENE 10 17 29.85 1011 2 3 0.23 5.84
5:53 pm 17:53 Cloudy with Strong Thunderstorms 64 17.8 54 12.2 70 70 NE 10 17 30.10 1019 2 3 0.28 7.11
5:57 pm 17:57 Cloudy with Thunderstorms 64 17.8 52 11.1 65 65 NNE 10 17 29.91 1013 3 5 0.01 0.25
6:31 pm 18:31 Cloudy with Nearby Thunderstorms 62 16.7 51 10.6 67 67 N 12 19 29.94 1014 10 16 0.02 0.51
6:53 pm 18:53 Cloudy with Thunderstorms 61 16.1 52 11.1 72 72 NNW 5 7 30.16 1021 10 16 0.03 0.76
7:08 pm 19:08 Cloudy with Nearby Thunderstorms 61 16.1 52 11.1 72 72 N 14 22 30.00 1016 10 16 0.00 0.00
7:15 pm 19:15 Cloudy with Light Rain 61 16.1 52 11.1 72 72 N 13 20 30.01 1016 8 13 0.01 0.25
7:53 pm 19:53 Cloudy with Light Rain 60 15.6 53 11.7 78 78 E 12 19 30.19 1022 7 11 0.04 1.02
8:53 pm 20:53 Cloudy with Light Rain 58 14.4 55 12.8 90 90 SW 6 9 30.14 1021 10 16 0.07 1.78
9:53 pm 21:53 Cloudy with Light Rain 59 15 54 12.2 83 83 E 7 11 30.10 1019 10 16 0.06 1.52
10:53 pm 22:53 Mostly Cloudy 59 15 54 12.2 83 83 NE 6 9 30.10 1019 10 16 0.00 0.00
11:53 pm 23:53 Cloudy with Light Rain 57 13.9 54 12.2 90 90 S 5 7 30.09 1019 10 16 0.00 0.00

Powered by AerisWeather